Tracking 22130 objects as of 21-Jan-2021
HD Live streaming from Space Station
objects crossing your sky now

STARLINK-1257

Track STARLINK-1257 now!
10-day predictions
STARLINK-1257 is classified as:


NORAD ID: 45402
Int'l Code: 2020-019AU
Perigee: 554.2 km
Apogee: 556.8 km
Inclination: 53.0 °
Period: 95.6 minutes
Semi major axis: 6926 km
RCS: Unknown
Launch date: March 18, 2020
Source: United States (US)
Launch site: AIR FORCE EASTERN TEST RANGE (AFETR)
aabbcc
Your satellite tracking list
Your tracking list is empty




NASA's NSSDC Master Catalog

Two Line Element Set (TLE):
1 45402U 20019AU  21021.38607361  .00047690  00000-0  32303-2 0  9996
2 45402  52.9995 266.2036 0001890  68.7519 291.3671 15.06036198 47611
Source of the keplerian elements: AFSPC